| time (UTC) | temp F | wind direction | speed MPH | gust MPH | rain 1hr in | rain 24hr in | rain mn in | humidity % | barometer mb |
| 20260503224028 | 51 | 185 | 1.0 | 2.0 | 0.00 | 0.01 | 0.00 | 51 | 1010.6 |
| 20260503223028 | 52 | 118 | 2.0 | 5.0 | 0.00 | 0.01 | 0.00 | 50 | 1010.5 |
| 20260503222929 | 52 | 14 | 4.0 | 8.0 | 0.00 | 0.01 | 0.00 | 50 | 1010.5 |
| 20260503222027 | 52 | 8 | 2.0 | 7.0 | 0.00 | 0.01 | 0.00 | 51 | 1010.4 |
| 20260503221029 | 52 | 239 | 4.0 | 7.0 | 0.00 | 0.01 | 0.00 | 52 | 1010.2 |
| 20260503220045 | 52 | 29 | 5.0 | 7.0 | 0.00 | 0.01 | 0.00 | 52 | 1010.2 |
| 20260503215128 | 52 | 269 | 3.0 | 8.0 | 0.00 | 0.01 | 0.00 | 53 | 1010.0 |
| 20260503214129 | 52 | 208 | 3.0 | 7.0 | 0.00 | 0.01 | 0.00 | 53 | 1009.9 |
| 20260503213128 | 51 | 222 | 4.0 | 6.0 | 0.00 | 0.01 | 0.00 | 53 | 1009.8 |
| 20260503212227 | 51 | 251 | 7.0 | 10.0 | 0.00 | 0.01 | 0.00 | 54 | 1009.8 |
| 20260503211228 | 51 | 247 | 2.0 | 8.0 | 0.00 | 0.01 | 0.00 | 55 | 1009.7 |
| 20260503210327 | 51 | 217 | 4.0 | 6.0 | 0.00 | 0.01 | 0.00 | 55 | 1009.6 |
| 20260503205329 | 52 | 253 | 2.0 | 3.0 | 0.00 | 0.01 | 0.00 | 56 | 1009.6 |
| 20260503204330 | 52 | 246 | 4.0 | 10.0 | 0.00 | 0.01 | 0.00 | 56 | 1009.4 |
| 20260503203427 | 52 | 221 | 2.0 | 7.0 | 0.00 | 0.02 | 0.00 | 57 | 1009.2 |
| 20260503202428 | 52 | 198 | 1.0 | 3.0 | 0.00 | 0.02 | 0.00 | 57 | 1009.2 |
| 20260503201430 | 52 | 42 | 6.0 | 16.0 | 0.00 | 0.02 | 0.00 | 58 | 1009.0 |
| 20260503195530 | 53 | 169 | 1.0 | 2.0 | 0.00 | 0.02 | 0.00 | 59 | 1009.0 |
| 20260503194528 | 53 | 235 | 9.0 | 12.0 | 0.00 | 0.02 | 0.00 | 60 | 1009.0 |
| 20260503193528 | 54 | 266 | 6.0 | 12.0 | 0.00 | 0.02 | 0.00 | 61 | 1009.0 |
| 20260503192627 | 54 | 256 | 6.0 | 10.0 | 0.00 | 0.02 | 0.00 | 61 | 1008.9 |
| 20260503191630 | 53 | 257 | 3.0 | 11.0 | 0.00 | 0.02 | 0.00 | 62 | 1008.9 |
| 20260503190629 | 52 | 136 | 3.0 | 7.0 | 0.00 | 0.02 | 0.00 | 63 | 1009.1 |
| 20260503185631 | 52 | 44 | 3.0 | 5.0 | 0.00 | 0.02 | 0.00 | 63 | 1009.0 |
| 20260503184629 | 52 | 246 | 4.0 | 9.0 | 0.00 | 0.02 | 0.00 | 64 | 1009.0 |
| 20260503183627 | 51 | 196 | 2.0 | 4.0 | 0.00 | 0.02 | 0.00 | 64 | 1008.9 |
| 20260503182628 | 52 | 216 | 2.0 | 5.0 | 0.00 | 0.02 | 0.00 | 65 | 1009.1 |
| 20260503181727 | 51 | 169 | 1.0 | 4.0 | 0.00 | 0.02 | 0.00 | 66 | 1009.0 |
| 20260503181627 | 51 | 223 | 1.0 | 4.0 | 0.00 | 0.02 | 0.00 | 65 | 1009.0 |
| 20260503180628 | 51 | 130 | 1.0 | 5.0 | 0.00 | 0.02 | 0.00 | 66 | 1009.1 |
| 20260503175628 | 51 | 335 | 2.0 | 4.0 | 0.00 | 0.02 | 0.00 | 66 | 1009.0 |
| 20260503174727 | 52 | 83 | 5.0 | 7.0 | 0.00 | 0.02 | 0.00 | 68 | 1008.8 |
| 20260503173730 | 51 | 321 | 0.0 | 3.0 | 0.00 | 0.02 | 0.00 | 68 | 1008.8 |
| 20260503171828 | 50 | 77 | 4.0 | 8.0 | 0.00 | 0.02 | 0.00 | 69 | 1009.0 |
| 20260503150926 | 45 | 96 | 3.0 | 7.0 | 0.00 | 0.02 | 0.00 | 77 | 1009.3 |
| 20260503131129 | 46 | 77 | 4.0 | 8.0 | 0.00 | 0.02 | 0.00 | 80 | 1009.4 |
| 20260503130128 | 46 | 81 | 3.0 | 7.0 | 0.00 | 0.02 | 0.00 | 81 | 1009.3 |
| 20260503120129 | 43 | 180 | 0.0 | 2.0 | 0.00 | 0.05 | 0.00 | 81 | 1009.5 |
| 20260503110229 | 40 | 192 | 0.0 | 2.0 | 0.00 | 0.09 | 0.00 | 83 | 1009.6 |
| 20260503071829 | 41 | 270 | 0.0 | 0.0 | 0.00 | 0.10 | 0.00 | 83 | 1011.0 |
| 20260503070828 | 41 | 270 | 0.0 | 0.0 | 0.00 | 0.10 | 0.00 | 84 | 1010.8 |
| 20260503055028 | 41 | 225 | 0.0 | 0.0 | 0.00 | 0.10 | 0.00 | 83 | 1012.0 |
| 20260503054028 | 41 | 225 | 0.0 | 0.0 | 0.00 | 0.10 | 0.00 | 83 | 1012.2 |
| 20260503053127 | 42 | 225 | 0.0 | 0.0 | 0.00 | 0.10 | 0.00 | 84 | 1011.9 |
| 20260503052128 | 42 | 225 | 0.0 | 0.0 | 0.00 | 0.10 | 0.00 | 84 | 1012.1 |
| 20260503051227 | 42 | 225 | 0.0 | 0.0 | 0.00 | 0.10 | 0.00 | 84 | 1012.2 |
| 20260503050327 | 42 | 225 | 0.0 | 0.0 | 0.00 | 0.10 | 0.00 | 84 | 1012.3 |
| 20260503044327 | 43 | 225 | 0.0 | 1.0 | 0.00 | 0.10 | 0.00 | 83 | 1012.5 |
| 20260503042328 | 43 | 225 | 0.0 | 0.0 | 0.00 | 0.10 | 0.00 | 83 | 1012.8 |
| 20260503041328 | 43 | 225 | 0.0 | 0.0 | 0.00 | 0.10 | 0.00 | 82 | 1012.9 |
| 20260503040426 | 44 | 225 | 0.0 | 0.0 | 0.00 | 0.10 | 0.00 | 82 | 1012.8 |
| 20260503035516 | 43 | 225 | 0.0 | 0.0 | 0.00 | 0.10 | 0.10 | 83 | 1012.9 |
| 20260503034534 | 43 | 202 | 0.0 | 0.0 | 0.00 | 0.10 | 0.10 | 83 | 1013.0 |
| 20260503033615 | 43 | 270 | 0.0 | 0.0 | 0.00 | 0.10 | 0.10 | 83 | 1012.9 |
| 20260503032615 | 43 | 270 | 0.0 | 0.0 | 0.01 | 0.10 | 0.10 | 82 | 1012.9 |
| 20260503031616 | 44 | 226 | 0.0 | 1.0 | 0.01 | 0.10 | 0.10 | 82 | 1013.1 |
| 20260503030714 | 44 | 225 | 0.0 | 0.0 | 0.01 | 0.10 | 0.10 | 81 | 1013.0 |
| 20260503025717 | 44 | 337 | 0.0 | 0.0 | 0.01 | 0.10 | 0.10 | 82 | 1013.0 |
| 20260503024816 | 44 | 337 | 0.0 | 0.0 | 0.01 | 0.10 | 0.10 | 80 | 1013.2 |
| 20260503023915 | 44 | 337 | 0.0 | 0.0 | 0.01 | 0.10 | 0.10 | 81 | 1013.0 |
| 20260503021016 | 45 | 337 | 0.0 | 0.0 | 0.00 | 0.09 | 0.09 | 79 | 1013.2 |
| 20260503020017 | 45 | 337 | 0.0 | 0.0 | 0.00 | 0.09 | 0.09 | 79 | 1013.3 |
| 20260503015016 | 46 | 337 | 0.0 | 0.0 | 0.00 | 0.09 | 0.09 | 80 | 1013.5 |
| 20260503014016 | 46 | 337 | 0.0 | 0.0 | 0.00 | 0.09 | 0.09 | 79 | 1013.4 |
| 20260503013016 | 46 | 337 | 0.0 | 0.0 | 0.00 | 0.09 | 0.09 | 79 | 1013.3 |
| 20260503012018 | 47 | 337 | 0.0 | 0.0 | 0.00 | 0.09 | 0.09 | 78 | 1013.3 |
| 20260503011019 | 46 | 225 | 0.0 | 0.0 | 0.00 | 0.09 | 0.09 | 78 | 1013.3 |
| 20260503010116 | 45 | 225 | 0.0 | 0.0 | 0.00 | 0.09 | 0.09 | 77 | 1013.2 |
| 20260503005117 | 46 | 225 | 0.0 | 0.0 | 0.00 | 0.09 | 0.09 | 77 | 1013.2 |
| 20260503004116 | 46 | 225 | 0.0 | 0.0 | 0.00 | 0.09 | 0.09 | 77 | 1013.0 |
| 20260503003117 | 47 | 225 | 0.0 | 0.0 | 0.00 | 0.09 | 0.09 | 77 | 1012.8 |
| 20260503002215 | 47 | 225 | 0.0 | 0.0 | 0.00 | 0.09 | 0.09 | 76 | 1012.9 |
| 20260503001217 | 47 | 225 | 0.0 | 0.0 | 0.00 | 0.09 | 0.09 | 76 | 1012.8 |
| 20260503000215 | 48 | 225 | 0.0 | 0.0 | 0.00 | 0.09 | 0.09 | 76 | 1012.7 |
| 20260502233216 | 49 | 225 | 0.0 | 0.0 | 0.00 | 0.09 | 0.09 | 75 | 1012.5 |
| 20260502232215 | 49 | 225 | 0.0 | 0.0 | 0.00 | 0.09 | 0.09 | 74 | 1012.6 |
| 20260502230316 | 50 | 225 | 0.0 | 0.0 | 0.00 | 0.09 | 0.09 | 74 | 1012.6 |
| 20260502225315 | 50 | 225 | 1.0 | 2.0 | 0.00 | 0.09 | 0.09 | 73 | 1012.6 |
| 20260502224315 | 50 | 202 | 0.0 | 1.0 | 0.00 | 0.09 | 0.09 | 72 | 1012.5 |